STARLINK-2633 (48435 NORAD) Tracking and Keplerian Element Data

This shows tracking and keplerian element data for the satellite.

Feedback or suggestion? Click here.




ElementValue
Catalog48435
NameSTARLINK-2633
Epoch Orbit1484
Epoch Day215.25002315
Epoch Year2021
RAAN155.6797
Inclination53.0466
Eccentricity0.0002269
Argument of Perigee25.1787
Mean Anonmoly170.4329
Mean Motion15.73234858
Decay Rate-0.0003491
L11 48435U 21040H 21215.25002315 -.00034910 00000-0 -24489-3 0 9999
L22 48435 53.0466 155.6797 0002269 25.1787 170.4329 15.73234858 14848

Live tracking and technical data element details for STARLINK-2633 (NORAD 48435). STARLINK-2633 can be tracked NOW for your location showing map with azimuth and elevation plus other details from your city location.

Track the satellite on the map from your city or location and see movement details for azimuth, elevation, latitude, longitude, range, height, and movement on the map or in text.







IsCatalogInMostPopularTable: catalog: 48435, numindb: 26
Update: records affected: 1



GetName: 48435 STARLINK-2633

Hit Count: updated at: Tue, 03 Aug 2021 19:29:57 GMT